User: anonymous   Login
Location: Unspecified
(0.0000°N, 0.0000°E)
Time: 23:00:57
(UTC+00:00)
Language:

FORMOSAT 3C - Orbit

View from above orbital plane
View from above orbital plane
View from above satellite
View from above satellite

Ground track
Ground track

The orbit data is extracted from the following two-line orbital elements,

1 29049U 06011C   24176.13607910  .00000626  00000-0  25665-3 0  9990
2 29049  72.0199  81.6252 0033617  21.2100 339.0422 14.30080698949244
Epoch (UTC): 24 June 2024 03:15:57
Eccentricity: 0.0033617
inclination: 72.0199°
perigee height: 767 km
apogee height: 815 km
right ascension of ascending node: 81.6252°
argument of perigee: 21.2100°
revolutions per day: 14.30080698
mean anomaly at epoch: 339.0422°
orbit number at epoch: 94924

The dashed part of the orbit path shows where the satellite is in the earth's shadow,  

DLR